Location: Hac?musa Deresi
(39.1694°N, 32.2508°E)
Time: 15:34:35
(UTC+00:00)

Meteor 2-8 Rocket - Pass Details

Date: 22 April 2026
Orbit: 936 x 958 km, 82.5° (Epoch: 11 May)

Event Time Altitude Azimuth Distance (km) Brightness Sun altitude
Rises 17:43:59 0° 173° (S) 3,591 7.1 -13.1°
Reaches altitude 10° 17:46:30 10° 169° (S) 2,648 6.4 -13.6°
Maximum altitude 17:52:23 57° 93° (E) 1,100 4.5 -14.6°
Drops below altitude 10° 17:58:17 10° 16° (NNE) 2,655 7.0 -15.5°
Sets 18:00:48 0° 13° (NNE) 3,602 7.7 -16.0°
